This demonstration page uses our WeatherBlox Daily Observations layout. Learn more.

Left ArrowRight Arrow

44.8408, -93.29828

Hourly Observations for June 8, 2017

Temp ( °F °C ) Dew Point ( °F °C ) Humidity (%) Winds ( mph kmh ) Pressure ( in mb ) Visibility ( mi km ) Precip ( " mm )
12:07 am 00:07 Cloudy with Light Rain 74 23.3 52 11.1 46 46 S 8 13 29.91 1013 8 13 0.01 0.25
12:53 am 00:53 Mostly Cloudy 71 21.7 54 12.2 55 55 SSE 7 11 29.92 1013 10 16 0.01 0.25
1:53 am 01:53 Mostly Cloudy 73 22.8 51 10.6 46 46 S 8 13 29.91 1013 10 16 0.00 0.00
2:53 am 02:53 Mostly Cloudy 73 22.8 48 8.9 41 41 SSW 9 15 29.89 1012 10 16 0.00 0.00
3:53 am 03:53 Mostly Cloudy 72 22.2 47 8.3 41 41 SW 13 20 29.88 1012 10 16 0.00 0.00
4:53 am 04:53 Partly Cloudy 71 21.7 48 8.9 44 44 SW 6 9 29.88 1012 10 16 0.00 0.00
5:53 am 05:53 Partly Cloudy 70 21.1 49 9.4 47 47 WSW 8 13 29.89 1012 10 16 0.00 0.00
6:53 am 06:53 Mostly Cloudy 69 20.6 51 10.6 53 53 W 7 11 29.90 1013 10 16 0.00 0.00
7:53 am 07:53 Partly Cloudy 72 22.2 55 12.8 55 55 WNW 7 11 29.91 1013 10 16 0.00 0.00
8:53 am 08:53 Partly Cloudy 73 22.8 56 13.3 55 55 WNW 9 15 29.91 1013 10 16 0.00 0.00
9:53 am 09:53 Mostly Sunny 76 24.4 56 13.3 50 50 WNW 7 11 29.90 1012 10 16 0.00 0.00
10:53 am 10:53 Mostly Sunny 78 25.6 55 12.8 45 45 WNW 13 20 29.89 1012 10 16 0.00 0.00
11:53 am 11:53 Mostly Sunny 80 26.7 54 12.2 41 41 NNW 8 13 29.88 1012 10 16 0.00 0.00
12:53 pm 12:53 Mostly Sunny 82 27.8 53 11.7 37 37 NW 9 15 29.86 1011 10 16 0.00 0.00
1:53 pm 13:53 Partly Cloudy 83 28.3 54 12.2 37 37 WNW 12 19 29.85 1011 10 16 0.00 0.00
2:53 pm 14:53 Partly Cloudy 83 28.3 56 13.3 40 40 NW 10 17 29.84 1011 10 16 0.00 0.00
3:53 pm 15:53 Partly Cloudy 84 28.9 55 12.8 37 37 N 12 19 29.83 1010 10 16 0.00 0.00
4:53 pm 16:53 Partly Cloudy 83 28.3 54 12.2 37 37 NW 12 19 29.81 1010 10 16 0.00 0.00
5:53 pm 17:53 Mostly Sunny 84 28.9 54 12.2 36 36 NNW 10 17 29.80 1009 10 16 0.00 0.00
6:53 pm 18:53 Mostly Sunny 83 28.3 53 11.7 36 36 NNW 10 17 29.79 1009 10 16 0.00 0.00
7:53 pm 19:53 Mostly Sunny 80 26.7 54 12.2 41 41 N 9 15 29.80 1009 10 16 0.00 0.00
8:53 pm 20:53 Mostly Sunny 77 25 55 12.8 47 47 NNE 6 9 29.80 1009 10 16 0.00 0.00
9:53 pm 21:53 Mostly Clear 75 23.9 55 12.8 50 50 N 6 9 29.80 1009 10 16 0.00 0.00
10:53 pm 22:53 Mostly Clear 74 23.3 56 13.3 54 54 NNW 3 6 29.81 1009 10 16 0.00 0.00
11:53 pm 23:53 Mostly Clear 71 21.7 58 14.4 63 63 NW 5 7 29.80 1009 10 16 0.00 0.00

Powered by AerisWeather